This is the latest recevied weather packets stored in our database for station/object PA3DZX-13. If no packets are shown the sender has not sent any weather packets the latest 10 day(s).
| Time | Temp. | Humidity | Pressure | Rain* | Wind** | Luminosity | Snow |
|---|---|---|---|---|---|---|---|
| 1777810984 | 20.56° C | 66% | 1010.1 hPa | 0 mm | - | - | - |
| 1777810083 | 20.56° C | 63% | 1010.2 hPa | 0 mm | - | - | - |
| 1777809180 | 20.56° C | 63% | 1010.2 hPa | 0 mm | - | - | - |
| 1777808280 | 20.56° C | 63% | 1010.3 hPa | 0 mm | - | - | - |
| 1777807380 | 20.56° C | 63% | 1010.3 hPa | 0 mm | - | - | - |
| 1777806481 | 20.56° C | 65% | 1010.3 hPa | 0 mm | - | - | - |
| 1777805579 | 20.56° C | 67% | 1010.5 hPa | 0 mm | - | - | - |
| 1777804679 | 20° C | 65% | 1010.5 hPa | 0 mm | - | - | - |
| 1777803779 | 20° C | 65% | 1010.5 hPa | 0 mm | - | - | - |
| 1777802879 | 20° C | 64% | 1010.5 hPa | 0 mm | - | - | - |
| 1777801978 | 20° C | 65% | 1010.6 hPa | 0 mm | - | - | - |
| 1777801078 | 20° C | 66% | 1010.6 hPa | 0 mm | - | - | - |
| 1777800177 | 20° C | 67% | 1010.8 hPa | 0 mm | - | - | - |
| 1777799277 | 20° C | 70% | 1010.7 hPa | 0 mm | - | - | - |
| 1777798376 | 18.89° C | 70% | 1010.8 hPa | 0 mm | - | - | - |
| 1777797475 | 18.89° C | 72% | 1011 hPa | 0 mm | - | - | - |
| 1777796574 | 17.78° C | 73% | 1011 hPa | 0 mm | - | - | - |
| 1777795674 | 17.78° C | 79% | 1011.1 hPa | 0 mm | - | - | - |
| 1777794772 | 16.67° C | 83% | 1011.2 hPa | 0 mm | - | - | - |
| 1777793872 | 15.56° C | 88% | 1011.3 hPa | 0 mm | - | - | - |
| 1777792972 | 15.56° C | 90% | 1011.3 hPa | 0 mm | - | - | - |
| 1777792072 | 15° C | 91% | 1011.4 hPa | 0 mm | - | - | - |
| 1777791171 | 13.89° C | 94% | 1011.6 hPa | 0 mm | - | - | - |
| 1777790271 | 13.89° C | 93% | 1011.6 hPa | 0 mm | - | - | - |
| 1777789370 | 13.89° C | 95% | 1011.6 hPa | 0 mm | - | - | - |
* Rain latest hour (hover to see other rain measurements)
** Current wind speed in m/s (hover to see current wind gust speed)